TimeEDT,TemperatureF,Dew PointF,Humidity,Sea Level PressureIn,VisibilityMPH,Wind Direction,Wind SpeedMPH,Gust SpeedMPH,PrecipitationIn,Events,Conditions,WindDirDegrees,DateUTC
12:54 AM,54.0,39.9,59,30.19,10.0,Calm,Calm,-,N/A,,Partly Cloudy,0,2013-05-05 04:54:00
1:54 AM,52.0,41.0,66,30.17,10.0,Calm,Calm,-,N/A,,Partly Cloudy,0,2013-05-05 05:54:00
2:54 AM,50.0,41.0,71,30.17,10.0,WSW,3.5,-,N/A,,Partly Cloudy,240,2013-05-05 06:54:00
3:54 AM,48.0,42.1,80,30.17,10.0,SSW,3.5,-,N/A,,Partly Cloudy,210,2013-05-05 07:54:00
4:54 AM,50.0,42.1,74,30.18,10.0,SW,4.6,-,N/A,,Partly Cloudy,220,2013-05-05 08:54:00
5:54 AM,48.9,41.0,74,30.19,10.0,SW,6.9,-,N/A,,Partly Cloudy,230,2013-05-05 09:54:00
6:54 AM,52.0,42.1,69,30.20,10.0,SW,3.5,-,N/A,,Partly Cloudy,230,2013-05-05 10:54:00
7:54 AM,57.0,44.1,62,30.21,10.0,SW,4.6,-,N/A,,Partly Cloudy,220,2013-05-05 11:54:00
8:54 AM,64.0,44.1,48,30.22,10.0,SW,5.8,-,N/A,,Partly Cloudy,230,2013-05-05 12:54:00
9:54 AM,66.9,42.1,40,30.21,10.0,Calm,Calm,-,N/A,,Partly Cloudy,0,2013-05-05 13:54:00
10:54 AM,70.0,44.1,39,30.20,10.0,ESE,4.6,-,N/A,,Clear,110,2013-05-05 14:54:00
11:54 AM,73.0,42.1,33,30.19,10.0,Variable,5.8,-,N/A,,Scattered Clouds,0,2013-05-05 15:54:00
12:54 PM,73.9,39.9,29,30.17,10.0,ESE,9.2,-,N/A,,Partly Cloudy,110,2013-05-05 16:54:00
1:54 PM,75.2,39.2,27,30.15,10.0,SSE,6.9,-,N/A,,Partly Cloudy,160,2013-05-05 17:54:00
2:54 PM,75.0,41.0,29,30.14,10.0,East,9.2,-,N/A,,Partly Cloudy,80,2013-05-05 18:54:00
3:54 PM,75.9,37.0,24,30.12,10.0,SE,8.1,16.1,N/A,,Partly Cloudy,140,2013-05-05 19:54:00
4:54 PM,75.9,35.1,23,30.11,10.0,ESE,9.2,18.4,N/A,,Partly Cloudy,120,2013-05-05 20:54:00
5:54 PM,72.0,43.0,35,30.10,10.0,NNE,11.5,-,N/A,,Partly Cloudy,20,2013-05-05 21:54:00
6:54 PM,70.0,43.0,38,30.10,10.0,NE,9.2,-,N/A,,Partly Cloudy,40,2013-05-05 22:54:00
7:54 PM,68.0,41.0,37,30.10,10.0,ENE,9.2,-,N/A,,Partly Cloudy,70,2013-05-05 23:54:00
8:54 PM,66.0,39.9,38,30.11,10.0,East,9.2,-,N/A,,Partly Cloudy,80,2013-05-06 00:54:00
9:54 PM,62.1,41.0,46,30.12,10.0,East,8.1,-,N/A,,Partly Cloudy,100,2013-05-06 01:54:00
10:54 PM,62.1,41.0,46,30.12,10.0,East,3.5,-,N/A,,Partly Cloudy,90,2013-05-06 02:54:00
11:54 PM,60.1,41.0,49,30.12,10.0,Calm,Calm,-,N/A,,Partly Cloudy,0,2013-05-06 03:54:00